Regional Weather Roundup
Issued by NWS Kansas City/Pleasant Hill, MO

Home | Current Version | Previous Version | Graphics & Text | Print | Product List | Glossary Off
Versions: 1 2 3 4 5 6 7 8 9 10 11 12 13 14 15 16 17 18 19 20 21 22 23 24 25 26 27 28 29 30 31 32 33 34 35 36 37 38 39 40 41 42 43 44 45 46 47 48 49 50

000
ASUS43 KEAX 011004
RWREAX

WEATHER ROUNDUP FOR EASTERN KANSAS AND NORTHWEST MISSOURI
NATIONAL WEATHER SERVICE KANSAS CITY/PLEASANT HILL MO
500 AM CDT WED OCT 01 2014

KSZ040-057-103>105-MOZ028-029-037-043-011100-
...KANSAS CITY METROPOLITAN AREA...

CITY           SKY/WX    TMP DP  RH WIND       PRES   REMARKS
K.C. INTL      LGT RAIN  67  61  81 S15       29.74R
K.C. DOWNTOWN  MOCLDY    72  59  63 S13G24    29.73S
LEES SUMMIT    PTCLDY    67  58  72 S9        29.76S
OLATHE - IXD   MOCLDY    68  60  75 S9        29.75S
OLATHE - OJC   MOCLDY    65  59  81 S12       29.74S
LAWRENCE       TSTM      69  61  75 SW13G21   29.74R

$$

MOZ001>008-011>017-020>025-030>033-038>040-044>046-053-054-011100-
...NORTHERN AND CENTRAL MISSOURI...

CITY           SKY/WX    TMP DP  RH WIND       PRES   REMARKS
ST. JOSEPH     TSTM      65  65 100 CALM      29.78R FOG
MOSBY          PTSUNNY   68  59  73 SE6       29.74S
WHITEMAN AFB   MOCLDY    67  56  68 S12       29.78F
CLINTON        PTCLDY    66  57  72 SE3       29.80F HAZE
SEDALIA        PTCLDY    67  54  63 S12       29.81F
WARSAW         NOT AVBL
MARSHALL       PTCLDY    66  59  77 SE5       29.81F
CHILLICOTHE      N/A     68  57  68 SE6       29.78F
MOBERLY        PTCLDY    61  55  82 E7        29.84S
KIRKSVILLE     PTCLDY    60  32  34 E8        29.84S HAZE

$$

MOZ041-047>049-056>058-063>065-088>090-097-011100-
...EASTERN AND SOUTHERN MISSOURI...

CITY           SKY/WX    TMP DP  RH WIND       PRES   REMARKS
ST. LOUIS INTL CLEAR     63  59  87 E8        29.91R
SPIRIT OF STL  CLEAR    N/A N/A N/A CALM      29.89R
COLUMBIA       CLEAR     62  55  77 SE8       29.85S
JEFFERSON CITY CLEAR     61  54  77 E7        29.84S
MEXICO         CLEAR    N/A N/A N/A SE3       29.86S
ROLLA          CLEAR     63  53  70 S8        29.86S
LEBANON        PTCLDY    61  54  77 S7        29.86F
OSAGE BEACH    CLEAR     61  52  72 SE5       29.84F
SPRINGFIELD    PTCLDY    65  56  72 SE13      29.83F
BRANSON        MOCLDY    66  57  72 SE7       29.87S
NEVADA         PTCLDY    66  59  77 SE8       29.79S HAZE
JOPLIN         PTCLDY    70  59  68 S12       29.80S
WEST PLAINS    CLEAR     55  51  86 CALM      29.91R

$$

IAZ060-094-KSZ022-034>040-054-083-096-NEZ052-066-093-011100-
...KANSAS...SOUTHEAST NEBRASKA AND IOWA...

CITY           SKY/WX    TMP DP  RH WIND       PRES   REMARKS
TOPEKA         CLOUDY    67  61  81 CALM      29.73F THUNDER
MANHATTAN      PTCLDY    68  65  90 S7        29.69S
EMPORIA        CLOUDY    67  64  90 S15       29.73R
CHANUTE        MOCLDY    69  61  75 S10       29.76R
WICHITA        MOCLDY    70  64  81 S12       29.72S
OMAHA          HVY RAIN  63  59  87 S6        29.71R
LINCOLN        LGT RAIN  62  60  93 E14       29.72R
FALLS CITY     LGT RAIN  66  64  93 SE7       29.71F
LAMONI         RAIN      63  61  93 W7        29.82R FOG
DES MOINES     RAIN      61  58  90 SE10      29.81S FOG

$$




USA.gov is the U.S. government's official web portal to all federal, state and local government web resources and services.